SCP
0 0 0 0 0 0 0 0 0 0 0 0 0 0 0 0 0 0 0 0 0 0 -0 0 0 0 -0 -0 -0 -0 0 0 0 0 0 0 0 0 0 0 0 0 0 0
0 0 0 0 0 0 0 0 0 0 0 0 0 0 0 0 0 0 0 0 0 -0 -0 -0 -0 -0 -0 -0 0 0 -0 0 0 0 0 0 0 0 0 0 0 0 0 0
0 0 0 0 0 0 0 0 0 0 0 0 0 0 0 0 0 0 0 0 0 -0 -0 -0 -0 0 0 0 0 0 0 0 0 0 0 0 0 0 0 0 0 0 0 0
0 0 0 0 0 0 0 0 0 0 0 -0 0 0 0 0 0 0 0 0 0 0 0 0 0 -0 -0 0 0 0 0 0 0 0 0 0 0 0 0 0 0 0 0 0
0 0 0 0 0 0 0 0 0 0 0 0 0 0 0 0 0 0 0 0 0 0 0 0 -0 -0 -0 -0 0 0 0 0 0 0 0 0 0 0 0 0 0 0 0 0
0 0 0 0 0 0 0 0 0 0 0 0 0 0 0 0 0 0 0 0 0 0 0 0 0 0 -0 -0 0 0 0 0 0 0 0 0 0 0 0 0 0 0 0 0
0 0 0 0 0 0 0 0 0 0 0 0 0 0 0 0 0 0 0 0 0 0 0 0 0 0 -0 0 0 0 0 0 0 0 0 0 0 0 0 0 0 0 0 0
0 0 0 0 0 0 0 0 0 0 0 0 0 0 0 0 0 0 0 0 0 0 0 0 0 0 0 0 0 0 0 0 0 0 0 0 0 0 0 0 0 0 0 0
0 0 0 0 0 0 0 0 0 0 0 0 0 0 0 0 0 0 0 0 0 0 0 0 0 0 0 0 0 0 0 0 0 0 0 0 0 0 0 0 0 0 0 0
0 -0 0 0 0 0 0 0 0 0 0 0 0 0 0 0 0 0 0 0 0 0 0 0 0 0 0 0 0 0 0 0 0 0 0 0 0 0 0 0 0 0 0 0
0 -0 0 0 0 0 0 0 0 0 0 0 0 0 0 0 0 0 0 0 0 0 0 0 0 0 0 0 0 0 0 0 0 0 0 0 0 0 0 0 0 0 0 0
0 0 0 0 0 0 0 0 0 0 0 0 0 0 0 0 0 0 0 0 0 0 0 0 0 0 0 0 0 0 0 0 0 0 0 0 0 0 0 0 0 0 0 0
0 0 0 0 0 0 0 0 0 0 0 0 0 0 0 0 0 0 0 0 0 0 0 0 0 0 0 0 0 0 0 0 0 0 0 0 0 0 0 0 0 0 0 0
0 0 0 0 0 0 0 0 0 0 0 0 0 0 0 0 0 0 0 0 0 0 0 0 0 0 0 0 0 0 0 0 0 0 0 0 0 0 0 0 0 0 0 0
-0 0 0 0 0 0 0 0 0 0 0 0 0 0 0 0 0 0 0 0 0 0 0 0 0 0 0 0 0 0 0 0 0 0 0 0 0 0 0 0 0 0 0 0
-0 -0 0 0 0 0 0 0 0 0 0 0 0 0 0 0 0 0 0 0 0 0 0 0 0 0 0 0 0 0 0 0 0 0 0 0 0 0 0 0 0 0 0 0
0 0 0 0 0 0 0 0 0 0 0 0 0 0 0 0 0 0 0 0 0 0 0 0 0 0 0 0 0 0 0 0 0 0 0 0 0 0 0 0 0 0 0 0
0 -0 -0 0 0 0 0 0 0 0 0 0 0 0 0 0 0 0 0 0 0 0 0 0 0 0 0 0 0 0 0 0 0 0 0 0 0 0 0 0 0 0 0 0
0 0 0 0 0 0 0 0 0 0 0 0 0 0 0 0 0 0 0 0 0 0 0 0 0 0 0 0 0 0 0 0 0 0 0 0 0 0 0 0 0 0 0 0
0 0 0 0 0 0 0 0 0 0 0 0 0 0 0 0 0 0 0 0 0 0 0 0 0 0 0 0 0 0 0 0 0 0 0 0 0 0 0 0 0 0 0 0
0 0 0 0 0 0 0 0 0 0 0 0 0 0 0 0 0 0 0 0 0 0 0 0 0 0 0 0 0 0 0 0 0 0 0 0 0 0 0 0 0 0 0 0
-0 0 0 0 0 0 0 0 0 0 0 0 0 0 0 0 0 0 0 0 0 0 0 0 0 0 0 0 0 0 0 0 0 0 0 0 0 0 0 0 0 0 0 0
-0 -0 -0 -0 0 0 0 0 0 0 0 0 -0 0 0 0 0 0 0 0 0 0 0 0 0 0 0 0 0 0 0 0 0 0 0 0 0 0 0 0 0 0 0 0
0 0 0 -0 0 0 0 0 -0 0 -0 -0 0 -0 -0 -0 0 0 0 0 0 0 0 0 0 0 0 0 0 0 0 0 0 0 0 0 0 0 0 0 0 0 0 0
0 0 0 0 0 0 0 0 0 0 0 0 0 0 0 0 0 0 0 0 0 0 0 0 0 0 0 0 0 0 0 0 0 0 0 0 0 0 0 0 0 0 0 0
0 0 0 0 0 0 0 0 0 0 0 0 0 0 0 0 0 0 0 -0 0 -0 -0 -0 -0 0 0 0 0 0 0 0 0 0 0 0 0 0 0 0 0 0 0 0
-0 0 0 0 0 0 0 0 0 0 0 0 0 0 0 0 0 0 0 0 0 0 -0 -0 0 0 0 0 0 0 0 0 0 0 0 0 0 0 0 0 0 0 0 0
Wind_Speed_500mb
49 47 37 45 47 49 52 55 43 36 45 36 35 32 28 29 39 47 56 63 67 72 72 70 69 65 61 57 56 53 52 50 48 47 44 42 41 38 35 32 27 23 22 18
39 46 53 37 45 50 51 51 51 50 40 41 43 43 37 36 45 52 59 66 68 69 71 74 73 69 64 60 58 56 54 51 48 47 45 44 42 39 37 34 30 27 23 20
35 48 46 48 38 46 53 51 48 45 45 36 37 36 38 40 46 55 61 64 67 72 74 74 75 71 69 64 59 58 55 53 51 49 47 45 43 40 38 36 33 30 25 22
15 34 50 33 43 41 35 44 47 47 43 50 38 35 44 50 48 51 58 61 62 65 67 70 69 68 65 62 60 59 57 56 53 52 49 46 44 42 39 37 34 31 27 24
10 25 30 44 43 50 35 37 38 49 46 41 44 40 50 54 46 49 56 61 63 64 65 67 71 70 69 66 62 59 60 59 56 54 52 49 49 48 42 38 34 31 27 26
11 20 38 36 44 55 47 34 36 36 34 30 32 29 24 47 46 46 46 50 54 58 62 66 69 71 72 70 66 63 63 61 58 56 53 51 49 50 43 38 34 30 28 26
22 16 19 26 31 21 43 21 26 35 44 42 31 31 43 49 56 49 46 49 50 55 62 66 69 74 75 72 68 62 60 60 59 57 56 51 50 49 45 41 35 33 29 26
10 16 17 37 8 9 17 23 23 30 46 51 36 46 40 40 54 52 50 52 54 56 59 64 70 78 76 74 69 61 60 61 59 58 56 53 52 49 46 41 38 35 31 28
6 4 19 17 23 23 26 22 21 25 26 28 42 42 30 28 46 50 50 51 54 57 59 65 72 80 75 72 68 66 65 63 60 57 56 54 55 52 50 46 42 38 34 31
17 7 17 18 26 35 35 31 24 22 23 22 29 36 31 31 34 43 48 49 51 51 56 63 74 76 75 68 70 68 67 65 63 63 59 55 54 54 55 57 52 43 38 36
16 22 41 25 46 47 43 40 38 28 18 8 29 41 33 31 31 35 41 44 48 53 55 60 66 72 71 71 75 70 66 70 67 64 64 58 54 59 54 55 56 52 44 39
7 28 27 28 50 38 38 41 39 30 25 20 5 21 26 26 30 31 36 40 43 47 49 54 59 63 66 70 76 74 75 73 74 72 71 64 62 61 55 50 54 49 41 36
7 31 44 36 31 32 28 34 41 35 29 22 21 12 19 21 20 24 24 29 34 38 42 45 52 58 66 75 79 80 78 76 76 75 79 72 71 71 69 61 55 50 46 42
25 23 31 20 23 35 33 29 38 40 37 31 20 18 21 20 20 19 18 17 23 28 34 39 45 52 59 71 75 75 72 70 67 81 79 79 74 73 69 69 63 59 56 52
11 12 12 22 20 29 37 20 30 41 45 42 30 27 28 24 22 21 14 12 14 19 24 31 37 43 50 65 72 77 74 69 71 77 79 75 72 70 69 67 64 62 61 57
15 11 15 17 18 26 31 31 2 17 26 31 38 35 29 25 24 24 21 17 13 11 14 21 29 35 45 57 66 69 74 73 81 77 75 76 75 72 68 66 64 66 66 62
29 21 16 17 21 20 30 29 23 14 11 23 31 40 34 32 30 25 23 22 14 12 11 8 16 25 37 51 65 66 71 74 79 81 79 78 80 77 71 65 65 69 68 62
29 27 21 15 10 14 17 26 26 26 21 19 27 34 44 47 47 41 31 22 16 10 3 16 24 26 30 41 54 58 63 69 80 87 81 79 81 79 75 70 65 65 66 64
12 15 14 9 7 3 15 20 28 27 25 22 24 35 40 37 41 50 43 35 35 28 24 3 11 25 21 37 42 49 55 63 77 84 84 81 81 81 80 75 68 65 65 67
29 21 15 8 9 7 6 17 27 24 28 31 33 27 22 25 36 30 35 49 53 49 41 21 8 11 9 21 42 44 52 55 68 76 84 85 84 82 81 75 72 68 66 67
34 33 33 33 32 25 20 17 18 20 23 28 31 31 31 31 24 21 30 30 37 34 37 41 31 13 7 19 32 39 47 56 52 58 71 81 82 82 82 80 77 72 67 63
23 19 19 16 15 13 10 11 14 16 18 21 23 24 23 22 26 25 22 24 31 34 33 30 35 38 25 5 19 36 40 45 49 50 57 65 75 80 85 85 83 74 63 60
18 17 16 17 16 13 15 17 23 21 21 25 29 29 27 23 18 21 26 22 20 27 33 33 28 28 34 27 9 22 32 35 45 51 51 49 56 69 81 83 85 78 64 59
19 19 17 15 16 18 20 18 21 23 31 32 29 33 25 22 25 21 22 34 35 31 31 32 33 32 30 30 30 22 17 28 37 44 50 60 69 67 70 77 82 82 70 61
21 22 25 25 27 27 28 28 30 30 31 32 31 31 31 31 31 32 33 44 52 48 46 39 36 37 38 37 36 33 30 22 23 31 42 49 52 55 57 65 75 78 76 71
28 30 30 30 33 32 34 36 38 37 37 40 39 40 41 41 41 47 47 48 56 62 61 56 47 44 42 44 48 44 40 36 28 23 29 37 43 46 52 59 68 76 78 74
31 30 32 30 34 38 37 38 43 45 40 39 46 47 50 52 53 54 52 55 53 59 66 71 66 58 55 50 51 52 48 46 40 31 27 27 31 37 43 48 56 65 69 69
Wind_Direction_500mb
233 253 226 218 222 220 224 220 219 213 227 220 196 204 198 191 180 182 184 184 186 186 187 189 188 187 184 182 180 179 179 179 182 182 183 184 183 182 182 181 180 181 183 185
238 234 250 252 224 222 227 228 223 226 230 218 215 212 203 178 182 182 185 186 187 187 188 190 189 187 185 182 180 179 180 180 181 182 181 184 184 184 187 183 184 184 187 192
240 230 238 242 238 216 227 227 227 224 227 234 221 203 181 185 186 186 188 187 187 189 190 190 190 187 186 183 180 181 181 181 182 181 181 185 184 184 188 187 190 191 194 197
250 235 225 239 234 256 239 228 223 232 222 229 205 206 191 201 191 187 187 189 190 190 191 191 190 188 186 184 182 182 183 183 184 183 183 185 185 187 190 191 195 196 197 198
233 227 240 223 225 233 236 246 239 223 228 227 191 206 216 210 199 191 188 189 190 190 189 188 189 188 186 185 184 184 185 186 186 186 184 186 188 190 191 193 194 195 198 204
241 231 223 229 219 222 219 241 236 246 225 194 192 214 214 187 202 196 191 186 185 187 186 188 189 188 187 187 186 188 188 188 187 187 187 189 191 193 193 194 195 193 196 207
228 241 234 7 319 303 212 220 294 251 228 220 202 215 228 189 200 195 187 181 182 185 187 188 188 187 189 189 190 190 188 188 189 189 189 191 191 194 194 192 193 194 197 209
208 209 236 353 355 318 -0 330 322 313 220 225 205 218 231 205 187 185 181 178 180 182 185 187 189 190 191 192 190 188 188 190 190 190 189 190 191 193 192 192 192 196 197 205
263 344 327 356 26 8 355 338 331 325 315 289 197 209 205 187 174 183 182 180 180 183 184 188 190 192 193 193 190 188 188 190 191 191 190 192 190 192 191 192 195 197 197 203
344 98 303 5 25 16 8 1 354 337 307 281 206 197 189 173 173 180 184 182 182 183 186 189 191 194 195 193 193 190 188 189 191 192 192 192 194 194 197 196 200 197 199 203
294 -0 342 329 354 355 360 10 13 10 354 251 215 208 194 190 186 188 190 187 185 188 191 194 195 196 194 194 194 192 191 189 191 194 193 193 197 199 201 209 212 209 208 210
340 341 314 296 322 327 353 8 17 13 14 14 107 169 176 170 179 184 185 189 192 195 195 196 197 197 196 195 196 193 192 192 191 192 194 195 192 200 201 214 210 211 212 214
304 320 314 313 318 330 343 358 17 25 30 26 30 71 122 122 136 156 171 183 192 197 198 198 199 199 199 196 197 197 194 192 193 194 199 193 198 208 205 209 213 213 216 220
303 318 307 332 343 344 331 347 7 26 32 31 37 61 79 92 93 111 134 163 182 192 197 200 201 203 201 198 200 199 198 199 196 196 206 205 212 219 219 219 217 213 215 221
307 293 305 323 346 348 349 312 3 21 29 23 27 47 62 67 70 69 82 124 156 179 191 198 202 205 201 202 200 200 197 200 199 206 214 214 216 220 222 223 222 221 219 222
293 271 307 331 343 353 0 19 144 25 27 28 34 43 55 61 66 64 65 75 103 140 178 195 205 204 205 203 201 202 201 202 201 213 214 213 215 219 219 224 222 222 224 225
251 247 265 302 337 343 360 20 36 65 33 17 35 43 52 57 61 64 64 62 86 121 131 183 208 207 207 205 201 205 202 204 207 214 216 217 217 221 223 224 224 225 227 226
236 226 244 281 318 340 4 14 33 46 55 47 42 51 55 55 54 56 63 64 65 60 200 207 192 191 209 209 205 206 205 205 207 215 216 218 219 222 225 225 225 227 227 228
211 231 251 256 227 157 32 28 37 37 50 63 63 49 48 55 51 53 54 65 55 46 30 30 214 200 194 207 205 208 209 208 211 214 220 221 220 222 224 224 225 227 228 229
73 79 88 115 147 142 108 61 56 43 48 53 52 52 37 32 42 41 31 43 46 39 30 38 69 183 211 228 208 204 210 215 221 218 222 224 224 223 224 224 224 227 228 231
58 66 76 83 89 96 94 77 62 48 40 39 37 31 28 28 22 353 19 20 20 20 26 30 31 12 251 232 209 198 216 214 223 220 223 229 229 226 224 223 222 225 227 230
53 53 51 49 50 34 19 11 1 353 355 356 0 358 7 14 9 16 359 352 351 356 1 5 14 17 12 307 197 211 221 216 225 225 225 231 231 228 225 223 221 222 225 228
33 33 27 18 12 353 339 333 326 313 311 317 324 326 330 333 333 330 328 332 331 328 334 341 338 341 2 12 332 241 240 235 227 221 225 236 239 237 232 226 223 221 221 224
350 351 350 344 334 325 316 308 303 303 307 313 312 315 315 312 307 305 303 300 306 309 306 306 317 318 310 325 343 338 290 254 243 232 230 234 235 239 236 230 226 223 220 224
318 319 321 322 322 319 314 310 305 302 301 301 301 297 295 295 292 295 291 292 294 293 291 292 295 298 303 289 300 311 317 304 269 248 242 239 236 235 233 228 225 223 221 223
307 308 307 308 307 308 308 306 302 299 298 294 289 288 288 286 285 285 286 287 290 289 286 282 280 279 278 284 282 291 291 298 296 282 257 246 240 234 231 224 220 220 222 224
301 302 300 299 299 301 298 293 291 291 291 289 287 282 279 281 281 280 280 279 279 281 281 280 277 272 269 265 264 267 276 276 282 282 278 263 248 240 234 229 226 223 223 223
Wind_Speed_850mb
49 47 37 45 47 49 52 55 43 36 45 36 35 32 28 29 39 47 56 63 67 72 72 70 69 65 61 57 56 53 52 50 48 47 44 42 41 38 35 32 27 23 22 18
39 46 53 37 45 50 51 51 51 50 40 41 43 43 37 36 45 52 59 66 68 69 71 74 73 69 64 60 58 56 54 51 48 47 45 44 42 39 37 34 30 27 23 20
35 48 46 48 38 46 53 51 48 45 45 36 37 36 38 40 46 55 61 64 67 72 74 74 75 71 69 64 59 58 55 53 51 49 47 45 43 40 38 36 33 30 25 22
15 34 50 33 43 41 35 44 47 47 43 50 38 35 44 50 48 51 58 61 62 65 67 70 69 68 65 62 60 59 57 56 53 52 49 46 44 42 39 37 34 31 27 24
10 25 30 44 43 50 35 37 38 49 46 41 44 40 50 54 46 49 56 61 63 64 65 67 71 70 69 66 62 59 60 59 56 54 52 49 49 48 42 38 34 31 27 26
11 20 38 36 44 55 47 34 36 36 34 30 32 29 24 47 46 46 46 50 54 58 62 66 69 71 72 70 66 63 63 61 58 56 53 51 49 50 43 38 34 30 28 26
22 16 19 26 31 21 43 21 26 35 44 42 31 31 43 49 56 49 46 49 50 55 62 66 69 74 75 72 68 62 60 60 59 57 56 51 50 49 45 41 35 33 29 26
10 16 17 37 8 9 17 23 23 30 46 51 36 46 40 40 54 52 50 52 54 56 59 64 70 78 76 74 69 61 60 61 59 58 56 53 52 49 46 41 38 35 31 28
6 4 19 17 23 23 26 22 21 25 26 28 42 42 30 28 46 50 50 51 54 57 59 65 72 80 75 72 68 66 65 63 60 57 56 54 55 52 50 46 42 38 34 31
17 7 17 18 26 35 35 31 24 22 23 22 29 36 31 31 34 43 48 49 51 51 56 63 74 76 75 68 70 68 67 65 63 63 59 55 54 54 55 57 52 43 38 36
16 22 41 25 46 47 43 40 38 28 18 8 29 41 33 31 31 35 41 44 48 53 55 60 66 72 71 71 75 70 66 70 67 64 64 58 54 59 54 55 56 52 44 39
7 28 27 28 50 38 38 41 39 30 25 20 5 21 26 26 30 31 36 40 43 47 49 54 59 63 66 70 76 74 75 73 74 72 71 64 62 61 55 50 54 49 41 36
7 31 44 36 31 32 28 34 41 35 29 22 21 12 19 21 20 24 24 29 34 38 42 45 52 58 66 75 79 80 78 76 76 75 79 72 71 71 69 61 55 50 46 42
25 23 31 20 23 35 33 29 38 40 37 31 20 18 21 20 20 19 18 17 23 28 34 39 45 52 59 71 75 75 72 70 67 81 79 79 74 73 69 69 63 59 56 52
11 12 12 22 20 29 37 20 30 41 45 42 30 27 28 24 22 21 14 12 14 19 24 31 37 43 50 65 72 77 74 69 71 77 79 75 72 70 69 67 64 62 61 57
15 11 15 17 18 26 31 31 2 17 26 31 38 35 29 25 24 24 21 17 13 11 14 21 29 35 45 57 66 69 74 73 81 77 75 76 75 72 68 66 64 66 66 62
29 21 16 17 21 20 30 29 23 14 11 23 31 40 34 32 30 25 23 22 14 12 11 8 16 25 37 51 65 66 71 74 79 81 79 78 80 77 71 65 65 69 68 62
29 27 21 15 10 14 17 26 26 26 21 19 27 34 44 47 47 41 31 22 16 10 3 16 24 26 30 41 54 58 63 69 80 87 81 79 81 79 75 70 65 65 66 64
12 15 14 9 7 3 15 20 28 27 25 22 24 35 40 37 41 50 43 35 35 28 24 3 11 25 21 37 42 49 55 63 77 84 84 81 81 81 80 75 68 65 65 67
29 21 15 8 9 7 6 17 27 24 28 31 33 27 22 25 36 30 35 49 53 49 41 21 8 11 9 21 42 44 52 55 68 76 84 85 84 82 81 75 72 68 66 67
34 33 33 33 32 25 20 17 18 20 23 28 31 31 31 31 24 21 30 30 37 34 37 41 31 13 7 19 32 39 47 56 52 58 71 81 82 82 82 80 77 72 67 63
23 19 19 16 15 13 10 11 14 16 18 21 23 24 23 22 26 25 22 24 31 34 33 30 35 38 25 5 19 36 40 45 49 50 57 65 75 80 85 85 83 74 63 60
18 17 16 17 16 13 15 17 23 21 21 25 29 29 27 23 18 21 26 22 20 27 33 33 28 28 34 27 9 22 32 35 45 51 51 49 56 69 81 83 85 78 64 59
19 19 17 15 16 18 20 18 21 23 31 32 29 33 25 22 25 21 22 34 35 31 31 32 33 32 30 30 30 22 17 28 37 44 50 60 69 67 70 77 82 82 70 61
21 22 25 25 27 27 28 28 30 30 31 32 31 31 31 31 31 32 33 44 52 48 46 39 36 37 38 37 36 33 30 22 23 31 42 49 52 55 57 65 75 78 76 71
28 30 30 30 33 32 34 36 38 37 37 40 39 40 41 41 41 47 47 48 56 62 61 56 47 44 42 44 48 44 40 36 28 23 29 37 43 46 52 59 68 76 78 74
31 30 32 30 34 38 37 38 43 45 40 39 46 47 50 52 53 54 52 55 53 59 66 71 66 58 55 50 51 52 48 46 40 31 27 27 31 37 43 48 56 65 69 69
Wind_Direction_850mb
233 253 226 218 222 220 224 220 219 213 227 220 196 204 198 191 180 182 184 184 186 186 187 189 188 187 184 182 180 179 179 179 182 182 183 184 183 182 182 181 180 181 183 185
238 234 250 252 224 222 227 228 223 226 230 218 215 212 203 178 182 182 185 186 187 187 188 190 189 187 185 182 180 179 180 180 181 182 181 184 184 184 187 183 184 184 187 192
240 230 238 242 238 216 227 227 227 224 227 234 221 203 181 185 186 186 188 187 187 189 190 190 190 187 186 183 180 181 181 181 182 181 181 185 184 184 188 187 190 191 194 197
250 235 225 239 234 256 239 228 223 232 222 229 205 206 191 201 191 187 187 189 190 190 191 191 190 188 186 184 182 182 183 183 184 183 183 185 185 187 190 191 195 196 197 198
233 227 240 223 225 233 236 246 239 223 228 227 191 206 216 210 199 191 188 189 190 190 189 188 189 188 186 185 184 184 185 186 186 186 184 186 188 190 191 193 194 195 198 204
241 231 223 229 219 222 219 241 236 246 225 194 192 214 214 187 202 196 191 186 185 187 186 188 189 188 187 187 186 188 188 188 187 187 187 189 191 193 193 194 195 193 196 207
228 241 234 7 319 303 212 220 294 251 228 220 202 215 228 189 200 195 187 181 182 185 187 188 188 187 189 189 190 190 188 188 189 189 189 191 191 194 194 192 193 194 197 209
208 209 236 353 355 318 -0 330 322 313 220 225 205 218 231 205 187 185 181 178 180 182 185 187 189 190 191 192 190 188 188 190 190 190 189 190 191 193 192 192 192 196 197 205
263 344 327 356 26 8 355 338 331 325 315 289 197 209 205 187 174 183 182 180 180 183 184 188 190 192 193 193 190 188 188 190 191 191 190 192 190 192 191 192 195 197 197 203
344 98 303 5 25 16 8 1 354 337 307 281 206 197 189 173 173 180 184 182 182 183 186 189 191 194 195 193 193 190 188 189 191 192 192 192 194 194 197 196 200 197 199 203
294 -0 342 329 354 355 360 10 13 10 354 251 215 208 194 190 186 188 190 187 185 188 191 194 195 196 194 194 194 192 191 189 191 194 193 193 197 199 201 209 212 209 208 210
340 341 314 296 322 327 353 8 17 13 14 14 107 169 176 170 179 184 185 189 192 195 195 196 197 197 196 195 196 193 192 192 191 192 194 195 192 200 201 214 210 211 212 214
304 320 314 313 318 330 343 358 17 25 30 26 30 71 122 122 136 156 171 183 192 197 198 198 199 199 199 196 197 197 194 192 193 194 199 193 198 208 205 209 213 213 216 220
303 318 307 332 343 344 331 347 7 26 32 31 37 61 79 92 93 111 134 163 182 192 197 200 201 203 201 198 200 199 198 199 196 196 206 205 212 219 219 219 217 213 215 221
307 293 305 323 346 348 349 312 3 21 29 23 27 47 62 67 70 69 82 124 156 179 191 198 202 205 201 202 200 200 197 200 199 206 214 214 216 220 222 223 222 221 219 222
293 271 307 331 343 353 0 19 144 25 27 28 34 43 55 61 66 64 65 75 103 140 178 195 205 204 205 203 201 202 201 202 201 213 214 213 215 219 219 224 222 222 224 225
251 247 265 302 337 343 360 20 36 65 33 17 35 43 52 57 61 64 64 62 86 121 131 183 208 207 207 205 201 205 202 204 207 214 216 217 217 221 223 224 224 225 227 226
236 226 244 281 318 340 4 14 33 46 55 47 42 51 55 55 54 56 63 64 65 60 200 207 192 191 209 209 205 206 205 205 207 215 216 218 219 222 225 225 225 227 227 228
211 231 251 256 227 157 32 28 37 37 50 63 63 49 48 55 51 53 54 65 55 46 30 30 214 200 194 207 205 208 209 208 211 214 220 221 220 222 224 224 225 227 228 229
73 79 88 115 147 142 108 61 56 43 48 53 52 52 37 32 42 41 31 43 46 39 30 38 69 183 211 228 208 204 210 215 221 218 222 224 224 223 224 224 224 227 228 231
58 66 76 83 89 96 94 77 62 48 40 39 37 31 28 28 22 353 19 20 20 20 26 30 31 12 251 232 209 198 216 214 223 220 223 229 229 226 224 223 222 225 227 230
53 53 51 49 50 34 19 11 1 353 355 356 0 358 7 14 9 16 359 352 351 356 1 5 14 17 12 307 197 211 221 216 225 225 225 231 231 228 225 223 221 222 225 228
33 33 27 18 12 353 339 333 326 313 311 317 324 326 330 333 333 330 328 332 331 328 334 341 338 341 2 12 332 241 240 235 227 221 225 236 239 237 232 226 223 221 221 224
350 351 350 344 334 325 316 308 303 303 307 313 312 315 315 312 307 305 303 300 306 309 306 306 317 318 310 325 343 338 290 254 243 232 230 234 235 239 236 230 226 223 220 224
318 319 321 322 322 319 314 310 305 302 301 301 301 297 295 295 292 295 291 292 294 293 291 292 295 298 303 289 300 311 317 304 269 248 242 239 236 235 233 228 225 223 221 223
307 308 307 308 307 308 308 306 302 299 298 294 289 288 288 286 285 285 286 287 290 289 286 282 280 279 278 284 282 291 291 298 296 282 257 246 240 234 231 224 220 220 222 224
301 302 300 299 299 301 298 293 291 291 291 289 287 282 279 281 281 280 280 279 279 281 281 280 277 272 269 265 264 267 276 276 282 282 278 263 248 240 234 229 226 223 223 223